Regional Weather Roundup
Issued by NWS

Home | Current Version | Previous Version | Text Only | Print | Product List | Glossary Off
Versions: 1 2 3 4 5 6 7 8 9 10 11 12 13 14 15 16 17 18 19 20 21 22 23 24 25 26 27 28 29 30 31 32 33 34 35 36 37 38 39 40 41 42 43 44 45 46 47 48 49 50

000
ASUS45 KSLC 201410
RWRUT

UTAH REGIONAL WEATHER ROUNDUP
NATIONAL WEATHER SERVICE SALT LAKE CITY UT
800 AM MDT MON OCT 20 2014

UTZ001>011-023>025-201500-

NORTHERN UTAH

CITY           SKY/WX    TMP DP  RH WIND       PRES   REMARKS
BRIGHAM CITY   CLEAR     40  33  76 CALM      30.06S
HILL AFB       CLEAR     49  31  50 E20       30.06S
LOGAN          CLEAR     36  31  82 CALM      30.07S
OGDEN          CLEAR     49  33  54 S8        30.04S
PROVO AIRPORT  PTCLDY    43  34  70 CALM      30.09S
SALT LAKE CITY PTCLDY    52  39  61 E8        30.04S
VERNAL           N/A     38  31  76 W6        30.18R WCI  33
WENDOVER       CLEAR     46  34  61 CALM      30.04S
HEBER CITY     CLEAR     32  30  93 CALM      30.16R
WEST JORDAN    CLEAR     52  39  62 S3        30.06S

$$

UTZ012>022-026-027-201500-

SOUTHERN/CENTRAL UTAH

CITY           SKY/WX    TMP DP  RH WIND       PRES   REMARKS
BLANDING       CLEAR     43  39  85 N7        30.27R
BRYCE CANYON   CLEAR     33  30  88 W8        30.24S WCI  26
CEDAR CITY     CLEAR     43  36  76 VRB3      30.10R
DELTA          CLEAR     45  35  68 N3        30.08R
HANKSVILLE       N/A     43  32  65 CALM      30.15R
MILFORD        CLEAR     40  32  73 S3        30.08S
MOAB/CYNLANDS  PTCLDY    53  41  63 CALM      30.11R
PRICE          CLEAR     45  30  55 CALM      30.17R
ST GEORGE      SUNNY     57  36  44 N7        30.02R

$$

REGIONAL REPORTS     COLORADO/ARIZONA

CITY           SKY/WX    TMP DP  RH WIND       PRES   REMARKS
CRAIG, CO      PTCLDY    29  26  89 CALM      30.22R
GRAND JUNCTION CLEAR     44  33  65 CALM      30.15R
RIFLE          CLEAR     39  34  82 SW3       30.21R
MONTROSE       CLEAR     42  37  82 SE6       30.23R
CORTEZ         CLOUDY    38  36  92 E6        30.22R WCI  33
PAGE, AZ       NOT AVBL
GRAND CANYON   CLEAR     34  32  92 NE6       30.19R WCI  29
KINGMAN        CLEAR     60  43  53 SE17      29.99R
FLAGSTAFF      CLEAR     34  31  88 CALM      30.20R

$$

REGIONAL REPORTS    NEVADA/IDAHO/WYOMING

CITY           SKY/WX    TMP DP  RH WIND       PRES   REMARKS
LAS VEGAS, NV  CLEAR     66  39  37 S9        29.88R
ELY            CLEAR     35  28  75 S9        30.11S WCI  28
ELKO           CLEAR     38  27  64 E6        30.02S WCI  33
POCATELLO, ID  PTCLDY    33  30  88 N3        30.03F
BURLEY         PTCLDY    45  32  60 E7        29.96F
EVANSTON, WY   NOT AVBL
ROCK SPRINGS   PTCLDY    38  28  67 CALM      30.19R
KEMMERER       PTCLDY    34  28  80 N6        30.21R WCI  29

$$



USA.gov is the U.S. government's official web portal to all federal, state and local government web resources and services.